Location: Bishops Cannings
(51.3667°N, 1.9500°W)
Time: 06:44:18
(UTC+00:00)

Daily predictions for brighter satellites

Satellite Brightness Start Highest point End
(mag) Time Altitude Azimuth Time Altitude Azimuth Time Altitude Azimuth
Cosmos 2322 Rocket 4.1 20:13:53 10° NNW 20:17:51 19° NNE 20:21:50 10° ENE
Ariane Rocket 4.2 20:14:33 10° S 20:19:23 44° W 20:24:14 10° NNW
Resurs 1-3 3.7 20:16:21 10° SSE 20:20:45 83° WSW 20:25:10 10° NNW
CZ-2C R/B 2.6 20:18:15 10° NNE 20:23:27 89° W 20:28:40 10° SSW
SL-08 R/B 4.5 20:17:42 10° S 20:23:54 78° E 20:30:04 10° NNE
Terra 3.6 20:22:17 10° E 20:25:27 18° NE 20:28:37 10° NNE
Cosmos 407 Rocket 4.2 20:20:52 10° SSE 20:25:39 35° ESE 20:30:25 10° NE
USA 234 3.4 20:19:43 10° ESE 20:26:16 83° NNE 20:32:50 10° WNW
Cosmos 1666 Rocket 4.4 20:23:13 10° SSE 20:26:59 30° E 20:30:48 10° NNE
Meteor 1-27 Rocket 4.0 20:23:57 10° N 20:29:50 65° ENE 20:35:44 10° SSE
Meteor 1-10 Rocket 4.4 20:24:44 10° NNW 20:30:25 85° WSW 20:36:10 10° S
Cosmos 2360 Rocket 4.4 20:28:19 10° N 20:31:46 16° NNE 20:35:11 10° ENE
MetOp-B 4.3 20:26:51 10° SSE 20:32:07 63° ENE 20:37:26 10° N
BREEZE-M DEB (TANK) 4.1 20:30:56 10° W 20:35:38 21° SW 20:38:10 10° S
ERBS 2.4 20:33:06 10° WSW 20:36:26 76° NNW 20:39:46 10° ENE
Cosmos 1805 Rocket 3.5 20:34:12 10° S 20:38:36 75° E 20:43:05 10° NNE
SPOT 5 3.9 20:35:59 10° ESE 20:39:33 26° ENE 20:43:09 10° N
Cosmos 1980 Rocket 2.5 20:36:11 10° NNW 20:41:50 58° NE 20:47:05 12° SE
SPOT 1/Viking Rocket 3.9 20:39:59 10° SE 20:45:01 52° ENE 20:50:06 10° N
SL-4 R/B 3.0 20:44:03 10° SSW 20:47:11 23° SE 20:50:10 10° E
Genesis I 3.5 20:43:34 10° NW 20:47:26 58° NE 20:50:44 13° ESE
BREEZE-M DEB (TANK) 2.4 20:45:23 10° WSW 20:47:55 53° SSE 20:53:50 10° E
ATLAS 5 CENTAUR R/B 3.3 20:44:57 10° NW 20:50:16 42° WSW 20:56:23 10° SSE
Cosmos 1140 Rocket 3.9 20:46:18 10° S 20:51:14 43° ESE 20:56:12 10° NE
Cosmos 389 Rocket 3.6 20:50:17 10° NNW 20:53:33 41° W 20:56:50 10° SSW
Cosmos 1812 3.5 20:52:54 10° NNW 20:56:39 51° W 21:00:22 10° S
Cosmos 1697 Rocket 2.9 20:51:59 10° NNW 20:57:35 70° WSW 21:03:04 10° SSE
Cosmos 1633 Rocket 3.2 20:55:52 10° S 21:00:11 53° E 21:04:30 10° NNE
Cosmos 1833 Rocket 2.7 20:54:38 10° SSW 21:00:11 66° ESE 21:05:47 10° NE
Okean 1-7 4.4 21:02:25 10° NNE 21:06:00 24° ENE 21:08:30 15° ESE
Cosmos 1867 4.2 21:01:38 10° S 21:06:28 34° ESE 21:11:21 10° NE
CENTAUR R/B 3.8 21:04:46 15° SE 21:07:06 18° ESE 21:11:24 10° ENE
Cosmos 1707 Rocket 3.9 21:03:53 10° NNW 21:08:12 65° W 21:12:28 10° S
Resurs 01 Rocket 2.8 21:06:41 10° S 21:10:51 41° W 21:15:05 10° NNW
FALCON 9 DEB 4.2 21:10:02 10° SSW 21:12:57 25° SE 21:15:22 13° E
Landsat 7 3.9 21:08:59 11° SSE 21:13:32 81° WSW 21:18:20 10° NNW
Cosmos 1441 Rocket 4.0 21:11:06 10° SSW 21:14:48 51° WNW 21:18:30 10° N
deb Kosmos-1763 4.3 21:14:15 12° S 21:17:29 45° ESE 21:21:00 10° NE
Cosmos 192 4.3 21:14:26 10° NNW 21:19:23 83° ENE 21:22:57 19° SSE
ATLAS 5 CENTAUR R/B 2.9 21:17:34 10° NNW 21:19:36 27° NE 21:23:22 10° E
Cosmos 676 Rocket 4.3 21:15:01 10° S 21:20:06 49° ESE 21:25:15 10° NNE
IGS 5A 3.8 21:17:35 12° S 21:21:19 65° WSW 21:25:27 10° NNW
Meteor 1-25 Rocket 4.4 21:17:53 13° SSE 21:22:39 51° E 21:28:06 10° NNE
Cosmos 1470 Rocket 3.8 21:19:30 16° SSE 21:22:54 52° E 21:27:11 10° NNE
Cosmos 614 Rocket 4.4 21:18:36 10° SW 21:23:45 67° WNW 21:28:58 10° NNE
Cosmos 1934 Rocket 4.0 21:18:35 10° S 21:24:57 87° E 21:31:22 10° N
Aureole 1 Rocket 4.4 21:19:11 10° S 21:26:00 67° ESE 21:34:15 10° NNE
GP-B 3.1 21:22:13 10° N 21:26:42 88° W 21:30:41 13° S
SWAS 4.4 21:23:23 10° SSW 21:27:42 84° ESE 21:32:04 10° NNE
USA 267 3.2 21:25:50 10° ENE 21:32:25 79° SSE 21:38:58 10° SW
Cosmos 921 Rocket 2.9 21:28:09 10° NNW 21:32:25 78° ENE 21:34:51 25° SSE
NOSS 3-2 (A) 3.8 21:27:08 10° S 21:32:27 41° ESE 21:38:28 10° NE
Cosmos 1862 Rocket 3.8 21:30:18 10° NNW 21:34:47 70° W 21:38:11 17° S
NOSS 3-2 (C) 4.2 21:35:51 20° SSE 21:38:34 29° ESE 21:43:59 10° ENE
COSMOS 2406 4.0 21:33:05 10° SW 21:38:43 55° NW 21:44:22 10° NNE
ERS-1 Rocket 3.0 21:36:08 19° SSE 21:39:45 85° WSW 21:44:49 10° NNW
OPS 6432 4.5 21:36:10 10° SSW 21:40:08 57° SE 21:43:16 10° NE
SAR-Lupe-2 3.6 21:36:43 10° NNE 21:40:16 55° ESE 21:41:56 28° S
SL-16 R/B 2.6 21:35:07 10° NNW 21:40:41 53° NE 21:44:17 22° ESE
Lacrosse 5 2.0 21:36:56 10° WNW 21:42:02 76° NNE 21:45:31 20° ESE
Cosmos 468 Rocket 4.1 21:37:17 10° NNW 21:42:38 69° ENE 21:45:45 25° SE
NOSS 2 (A) 4.2 21:47:55 10° NW 21:50:32 57° SW 21:50:43 55° SSW
Cosmos 2219 Rocket 4.3 21:47:00 10° NNW 21:51:07 20° NNE 21:55:12 10° E
Cosmos 1954 Rocket 4.0 21:48:03 10° SSW 21:53:23 84° ESE 21:58:45 10° NNE
Cosmos 2082 Rocket 2.2 21:47:43 10° SSW 21:53:26 86° WNW 21:59:09 10° NNE
Meteor 1-4 Rocket 4.4 21:51:08 10° NW 21:54:04 26° W 21:56:38 12° SSW
Cosmos 1184 Rocket 3.5 21:53:56 16° SSW 21:56:22 53° WNW 21:59:38 10° N
CARTOSAT-1 4.1 21:57:12 21° S 21:59:51 53° W 22:04:07 10° NNW
Terra 1.8 22:00:02 27° S 22:02:38 81° WSW 22:07:26 10° NNW
Cosmos 2322 Rocket 2.4 21:57:26 10° NNW 22:03:06 62° NE 22:06:13 27° SE
Cosmos 1933 Rocket 3.5 22:01:23 23° S 22:04:06 88° WNW 22:08:34 10° N
Okean 1 3.5 22:01:14 10° NNW 22:05:16 68° W 22:07:06 30° S
Cosmos 1238 Rocket 2.7 22:06:54 29° SW 22:08:10 52° WNW 22:11:03 10° N
Cosmos 1602 3.7 22:06:47 29° SSW 22:08:43 84° WNW 22:12:40 10° N
Cosmos 2100 Rocket 4.2 22:05:35 27° SSE 22:08:46 53° E 22:14:43 10° NNE
Cosmos 1437 Rocket 2.6 22:05:46 10° NNW 22:09:37 85° W 22:10:50 42° S
USA 234 3.9 22:06:06 24° SSE 22:09:40 43° SW 22:15:51 10° WNW
Cosmos 1605 Rocket 4.2 22:05:45 10° SSW 22:11:48 68° WNW 22:17:55 10° N
ERBS 4.1 22:10:03 10° WNW 22:13:04 31° N 22:16:05 10° ENE
Cosmos 1869 Rocket 3.8 22:13:01 37° SE 22:14:17 50° E 22:18:37 10° NNE
Cosmos 2360 Rocket 2.8 22:11:44 10° NNW 22:17:14 47° NE 22:20:19 24° ESE
SPOT 5 3.5 22:15:08 22° SSW 22:17:28 42° W 22:21:38 10° NNW
MTI 4.2 22:15:48 10° NNE 22:18:29 43° E 22:18:29 43° E
JB-3 4.3 22:15:35 10° NNE 22:19:34 68° ESE 22:20:44 43° S
Meteor 1-19 Rocket 4.4 22:16:14 10° NNW 22:21:36 63° W 22:24:35 26° S
ATLAS 3B R/B 3.6 22:21:12 24° ESE 22:21:43 24° ESE 22:26:49 10° ENE
Cosmos 1703 Rocket 3.8 22:18:08 10° NNW 22:22:27 62° W 22:24:15 33° SSW
Cosmos 2242 Rocket 4.4 22:18:28 10° NNW 22:22:44 46° W 22:24:58 25° SSW
Iridium 4 Rocket 3.2 22:21:45 41° SE 22:22:59 59° E 22:27:09 10° N
Geosat 4.0 22:20:48 34° SE 22:23:03 77° ENE 22:28:06 10° NNW
Cosmos 2173 Rocket 4.0 22:21:11 30° SSE 22:24:17 64° E 22:30:21 10° NNE
Cosmos 1980 Rocket 3.6 22:20:40 10° NW 22:25:31 30° WSW 22:28:51 17° SSW
Cosmos 1500 3.2 22:25:10 53° SE 22:25:38 58° E 22:29:19 10° NNE
Cosmos 405 Rocket 3.3 22:24:29 25° SW 22:26:22 51° WNW 22:30:03 10° N
SL-4 R/B 1.5 22:22:37 10° WSW 22:26:24 69° SSE 22:27:13 49° E
USA 238 DEB 3.6 22:21:37 10° SW 22:28:16 80° SE 22:35:15 10° NE
USA 238 3.6 22:21:44 10° SW 22:28:22 80° SE 22:35:22 10° NE
Cosmos 1763 Rocket 3.8 22:23:35 10° NNW 22:28:51 63° WSW 22:31:09 33° S
ALOS 2 4.0 22:27:44 23° E 22:29:12 28° ENE 22:32:56 10° N
Meteor 1-14 Rocket 4.4 22:29:24 22° SSW 22:33:19 80° WNW 22:39:19 10° N
Cosmos 1536 3.9 22:34:39 30° E 22:34:42 30° E 22:38:12 10° NNE
Cosmos 1666 3.4 22:37:32 36° E 22:37:32 36° E 22:40:53 10° NNE
Cosmos 2333 Rocket 3.5 22:32:19 10° NNW 22:37:35 34° NE 22:41:19 17° E
Cosmos 2237 Rocket 4.5 22:37:18 10° NNW 22:41:12 18° NNE 22:45:03 10° ENE
Meteor 1-13 Rocket 4.1 22:35:42 10° N 22:41:17 78° ENE 22:43:23 39° SSE
Cosmos 2016 Rocket 4.1 22:39:51 34° SSE 22:42:32 61° E 22:48:49 10° NNE
Meteor 1-5 Rocket 4.3 22:40:38 35° S 22:43:17 72° E 22:49:14 10° NNE
Lacrosse 4 Rocket 3.8 22:45:23 11° E 22:45:23 11° E 22:45:52 10° ENE
Okean 1-7 3.9 22:39:38 10° NNW 22:43:45 42° W 22:45:21 29° SW
Cosmos 2061 Rocket 4.1 22:41:23 35° SSE 22:43:55 61° E 22:50:02 10° NNE
MOS 1-B Rocket 3.8 22:38:54 10° NNE 22:44:37 63° ESE 22:46:43 38° SSE
Cosmos 2221 Rocket 3.6 22:40:56 10° N 22:45:25 75° ENE 22:46:29 51° SSE
Cosmos 1459 Rocket 4.0 22:42:35 30° S 22:45:55 87° ESE 22:52:20 10° N
Okean 3 3.4 22:45:17 10° NNW 22:49:35 83° W 22:50:31 55° S
FALCON 9 DEB 3.6 22:46:11 10° WSW 22:48:49 49° WSW 22:48:49 49° WSW
Cosmos 1867 4.2 22:44:30 10° WSW 22:49:52 58° NW 22:55:17 10° NE
Cosmos 1733 Rocket 3.6 22:50:59 39° ESE 22:51:22 40° E 22:55:31 10° NNE
Cosmos 1066 Rocket 4.5 22:46:02 10° N 22:51:44 59° ENE 22:53:46 38° SE
SL-27 R/B 2.3 22:53:08 77° NNE 22:53:08 77° NNE 22:56:15 10° NNE
Thor Agena Rocket 3.7 22:50:51 10° NNE 22:55:50 55° ESE 22:57:00 45° SSE
CENTAUR R/B 2.5 22:51:50 19° SSW 22:56:25 77° SE 23:03:41 10° NE
Cosmos 1850 Rocket 4.2 22:54:34 24° SW 22:57:48 72° WNW 23:03:06 10° NNE
Cosmos 967 Rocket 4.4 22:52:08 10° NW 22:58:32 80° SW 23:01:03 39° SSE
Meteor 2-4 Rocket 4.2 22:53:03 10° NNW 22:58:35 52° W 23:00:58 31° SSW
Cosmos 44 3.4 22:55:32 10° NW 23:00:22 67° SW 23:01:33 49° S
Cosmos 1802 Rocket 4.0 22:58:41 33° S 23:01:48 88° W 23:08:14 10° N
Spot 4 3.8 23:06:33 50° S 23:07:46 77° WSW 23:12:36 10° NNW
Cosmos 2346 Rocket 4.5 23:02:46 10° NNW 23:08:51 74° W 23:11:12 39° S
Cosmos 1378 3.7 23:08:49 10° N 23:12:27 46° ENE 23:12:29 46° ENE
USA 267 3.8 23:08:55 10° ENE 23:15:21 61° NNW 23:21:46 10° W
Cosmos 2233 Rocket 4.2 23:14:31 40° SSE 23:16:37 59° E 23:22:50 10° NNE
Cosmos 841 Rocket 4.1 23:15:52 10° NW 23:20:48 44° WSW 23:22:05 37° SW
Cosmos 540 Rocket 4.1 23:17:05 10° NW 23:21:58 44° WSW 23:23:10 37° SW
NOSS 3-2 (A) 4.1 23:17:13 10° WSW 23:23:05 58° NW 23:29:54 10° NE
SL-16 R/B 3.2 23:19:35 10° NW 23:24:35 33° WSW 23:26:08 28° SW
Lacrosse 5 2.7 23:20:11 10° WNW 23:24:41 33° SW 23:24:41 33° SW
Cosmos 2322 3.7 23:21:56 10° NNW 23:27:40 79° ENE 23:29:31 44° SE
Cosmos 1378 Rocket 3.5 23:23:47 10° N 23:28:16 75° E 23:28:49 65° SE
NOSS 3-2 (C) 3.6 23:23:11 11° SW 23:28:50 73° NW 23:35:42 10° NE
Cosmos 1833 4.3 23:28:44 48° SSE 23:29:50 57° ESE 23:35:23 10° NE
COSMOS 2487 3.6 23:32:14 35° ENE 23:32:14 35° ENE 23:34:34 10° NNE
Cosmos 2084 Rocket 3.4 23:35:30 64° WSW 23:36:07 84° NW 23:40:29 10° NE
Cosmos 2219 Rocket 2.4 23:30:30 10° NNW 23:36:11 66° ENE 23:38:19 38° SE
Tsikada Rocket 4.2 23:31:09 10° NNW 23:37:28 65° W 23:39:45 40° SSW
Cosmos 2082 Rocket 4.4 23:33:50 10° W 23:38:21 24° NW 23:42:53 10° NNE
EO 1 Del DPAF 3.3 23:36:04 10° N 23:39:48 66° WNW 23:39:56 65° W
Terra 4.2 23:39:15 10° WSW 23:41:09 12° W 23:43:05 10° WNW
Cosmos 1975 Rocket 4.0 23:37:21 10° N 23:41:36 39° ENE 23:42:25 36° E
Cosmos 2333 4.2 23:36:14 10° NNW 23:42:05 85° WSW 23:43:44 49° SSE
Cosmos 1242 Rocket 3.4 23:43:01 10° NNW 23:46:08 43° WNW 23:46:08 43° WNW
Cosmos 2322 Rocket 3.4 23:42:03 10° NW 23:46:47 28° WSW 23:48:01 25° SW
ERBS 3.8 23:46:49 10° NW 23:49:55 36° NNE 23:51:02 27° ENE
Helios 1A 3.0 23:49:48 62° ESE 23:50:12 66° ENE 23:54:24 10° N
SL-16 R/B 4.4 23:47:14 10° NNW 23:51:33 21° NE 23:55:52 10° E
Cosmos 1486 Rocket 4.0 23:52:11 56° SSE 23:52:57 63° ESE 23:58:07 10° NNE
Meteor 1-11 Rocket 4.3 23:51:38 31° SW 23:54:03 51° WNW 23:59:40 10° N
Cosmos 1544 3.8 23:54:38 44° ENE 23:54:38 44° ENE 23:57:40 10° NNE
